www.pogodaiklimat.ru

Погода и климат >> Архив погоды >> Индонезия >> Аэропорт Ахмад Яни


ПОГОДА в Аэропорту Ахмад Яни

  • Прогноз погоды в Аэропорту Ахмад Яни
  • Монитор погоды в Аэропорту Ахмад Яни

АРХИВ ПОГОДЫ в Аэропорту Ахмад Яни

Время (UTC), дата Ветер
(напр.,м/с)
 
Видим.   Явления Облачность Т
(С)
Тd
(С)
f
(%)
Тe
(С)
Тes
(С)
Комфортность P
(гПа)
Po
(гПа)
Тmin
(С)
Tmax
(С)
R
(мм)
R24
(мм)
S
(см)
09 9.07 В 4 8000 м 6/3 420 м
[Cu hum Ac trans Ci sp]
+31.7 +15.2 37 +34 +35 душно 1009.9 1009.5
12 9.07 З 2 6000 м 8/3 420 м
[Sc Ac trans Ci sp]
+27.5 +20.6 66 +34 +34 очень
душно
1012.0 1011.6 +32.9
15 9.07 Ю 1 6000 м 8/3 420 м
[Sc Ac trans Ci sp]
+25.4 +18.6 66 +30 +30 душно 1013.4 1013.0
18 9.07 Ю 2 6000 м 8/3 420 м
[Sc Ac trans Ci sp]
+24.5 +19.6 74 +30 +30 очень
душно
1013.4 1013.0
21 9.07 Ю 1 6000 м 8/3 420 м
[Sc Ac trans Ci sp]
+22.4 +19.4 83 +28 +28 душно 1012.7 1012.4
00 10.07 ЮВ 3 5000 м мгла 5/3 420 м
[Sc Ac trans Ci sp]
+23.2 +18.7 76 +29 +30 душно 1013.9 1013.5 +22.0
03 10.07 ЮВ 6 7000 м 4/1 420 м
[Cu hum Ac trans Ci sp]
+30.9 +16.9 43 +34 +39 душно 1013.3 1012.9
06 10.07 ЮВ 4 8000 м 4/1 420 м
[Cu hum Ac trans Ci sp]
+32.8 +18.2 42 +37 +45 очень
душно
1010.6 1010.2
09 10.07 СВ 5 8000 м 5/3 420 м
[Cu hum Ac trans Ci sp]
+32.6 +19.1 45 +38 +39 очень
душно
1009.9 1009.6
12 10.07 Ю 2 7000 м 8/3 420 м
[Sc diur, vesp Ac trans Ci sp]
+29.0 +22.7 69 +38 +38 очень
душно
1011.9 1011.6 +33.0
15 10.07 Ю 2 6000 м 5/1 450 м
[Sc Ac trans Ci sp]
+27.0 +20.3 67 +33 +33 очень
душно
1013.2 1012.9
18 10.07 ЮВ 3 6000 м 5/1 450 м
[Sc Ac trans Ci sp]
+26.2 +19.1 65 +31 +31 очень
душно
1012.6 1012.2
21 10.07 Ю 2 6000 м 5/1 450 м
[Sc Ac trans Ci sp]
+25.8 +19.4 68 +31 +31 очень
душно
1012.4 1012.0
00 11.07 ЮВ 3 6000 м 5/1 450 м
[Sc Ac trans Ci sp]
+26.6 +19.5 65 +32 +33 очень
душно
1014.1 1013.8 +23.2
03 11.07 В 7 8000 м 4/1 420 м
[Cu hum Ac trans Ci sp]
+30.4 +18.3 48 +35 +38 очень
душно
1014.2 1013.9
06 11.07 В 5 8000 м 6/3 420 м
[Cu hum Ac trans Ci fib]
+32.2 +18.0 43 +37 +41 очень
душно
1011.6 1011.2
09 11.07 В 3 8000 м 6/3 420 м
[Cu hum Ac trans Ci fib]
+32.6 +16.8 39 +36 +37 очень
душно
1011.1 1010.7
12 11.07 СВ 2 7000 м 6/3 420 м
[Sc Ac trans Ci fib]
+28.6 +23.7 75 +39 +39 очень
душно
1013.3 1013.0 +33.0
15 11.07 В 4 7000 м 9/4 420 м
[Sc Ac trans Ci fib]
+27.8 +22.3 72 +36 +36 очень
душно
1014.8 1014.5
18 11.07 ЮВ 2 6000 м 8/3 420 м
[Sc Ac trans Ci fib]
+25.2 +20.5 75 +31 +31 очень
душно
1013.1 1013.0
21 11.07 В 3 6000 м 6/3 420 м
[Sc Ac trans Ci fib]
+23.6 +19.9 80 +29 +29 душно 1013.4 1013.0
00 12.07 В 3 6000 м 4/3 450 м
[Sc Ac trans Ci sp]
+23.8 +20.1 80 +29 +30 душно 1015.0 1014.6 +22.4
03 12.07 В 7 8000 м 4/1 450 м
[Cu hum Ac trans Ci sp]
+30.8 +20.1 53 +37 +41 очень
душно
1014.7 1014.3
06 12.07 СВ 4 8000 м 5/3 420 м
[Cu hum Ac trans Ci fib]
+33.0 +18.4 42 +38 +43 очень
душно
1012.1 1011.7
09 12.07 С 3 8000 м 5/3 420 м
[Cu hum Ac trans Ci fib]
+32.4 +18.2 43 +37 +38 очень
душно
1010.9 1010.5
12 12.07 СЗ 2 7000 м 5/3 420 м
[Cu hum Ac trans Ci fib]
+28.6 +23.3 73 +39 +39 очень
душно
1012.4 1012.3 +33.4
15 12.07 В 2 7000 м 5/3 420 м
[Sc Ac trans Ci fib]
+27.0 +23.3 80 +36 +36 очень
душно
1013.8 1013.4
18 12.07 В 2 6000 м 4/1 420 м
[Sc Ac trans Ci fib]
+25.5 +21.8 80 +33 +33 очень
душно
1023.9 1012.6
21 12.07 ЮВ 2 6000 м 4/1 420 м
[Sc Ac trans Ci fib]
+23.8 +19.1 75 +29 +29 душно 1012.7 1012.4
00 13.07 штиль 0 5000 м мгла 4/1 420 м
[Sc Ac trans Ci fib]
+23.6 +19.7 79 +29 +31 душно 1014.5 1014.1 +22.5
03 13.07 СЗ 2 6000 м 4/1 420 м
[Sc Ac trans Ci fib]
+30.0 +20.5 57 +37 +47 очень
душно
1014.1 1013.7
06 13.07 ЮЗ 5 9000 м 4/1 450 м
[Cu hum Ac trans Ci fib]
+33.0 +17.6 40 +37 +43 очень
душно
1010.6 1010.2
09 13.07 СЗ 4 9000 м 5/3 450 м
[Cu hum Ac trans Ci fib]
+32.4 +16.3 38 +35 +36 душно 1009.2 1008.9
12 13.07 СЗ 4 7000 м 9/4 450 м
[Cu hum Ac trans Ci sp]
+28.4 +21.7 67 +36 +36 очень
душно
1011.2 1010.8 +33.3
15 13.07 С 3 7000 м 9/4 450 м
[Cu hum Ac trans Ci sp]
+27.0 +20.3 67 +33 +33 очень
душно
1013.3 1012.9
18 13.07 штиль 0 7000 м 6/3 420 м
[Cu hum Ac trans Ci sp]
+24.7 +18.2 67 +29 +29 душно 1012.5 1012.2
21 13.07 ЮВ 3 7000 м 6/3 420 м
[Cu hum Ac trans Ci sp]
+22.7 +18.0 75 +28 +28 душно 1012.1 1011.8
00 14.07 штиль 0 6000 м 3/1 450 м
[Sc Ac trans]
+22.6 +17.9 75 +28 +30 душно 1013.4 1013.1 +21.0
03 14.07 ЮВ 5 9000 м 1/1 480 м
[Sc Ac trans]
+30.0 +16.4 44 +33 +40 душно 1012.9 1012.5
06 14.07 СВ 3 6000 м 4/1 420 м
[Cu hum Ac trans Ci sp]
+32.0 +16.3 39 +35 +45 очень
душно
1010.1 1009.7
09 14.07 СЗ 6 8000 м 8/3 420 м
[Cu hum Ac trans Ci sp]
+31.3 +20.9 54 +39 +39 очень
душно
1008.8 1008.4
12 14.07 С 3 7000 м 6/3 420 м
[Sc Ac trans Ci sp]
+27.8 +20.9 66 +35 +35 очень
душно
1011.0 1010.7 +33.2
15 14.07 В 3 6000 м 9/4 420 м
[Sc Ac trans Ci sp]
+27.0 +21.1 70 +34 +34 очень
душно
1012.2 1011.8
18 14.07 ЮВ 3 6000 м 8/3 420 м
[Sc Ac trans Ci sp]
+24.8 +18.5 68 +29 +29 душно 1012.0 1011.6
21 14.07 Ю 3 6000 м 6/1 480 м
[Sc Ac trans Ci sp]
+24.6 +18.8 70 +29 +29 душно 1011.5 1011.1
00 15.07 В 3 5000 м мгла 5/1 420 м
[Sc Ac trans Ci sp]
+24.0 +18.0 69 +28 +29 душно 1012.3 1012.0 +22.0
03 15.07 ЮВ 5 8000 м 4/1 420 м
[Sc Ac trans Ci sp]
+31.2 +13.9 35 +33 +38 жарко 1012.0 1011.6
06 15.07 Ю 5 8000 м 4/1 420 м
[Cu hum Ac trans Ci fib]
+32.9 +13.5 31 +34 +40 очень
жарко
1009.5 1009.1
09 15.07 ЮВ 4 8000 м 6/3 420 м
[Cu hum Ac trans Ci sp]
+31.9 +15.0 36 +34 +35 душно 1008.0 1007.6
12 15.07 СЗ 3 6000 м 8/3 420 м
[Sc Ac trans Ci sp]
+28.3 +20.8 64 +35 +35 очень
душно
1011.1 1010.8 +33.3
15 15.07 Ю 1 6000 м 9/3 420 м
[Sc Ac trans Ci sp]
+27.4 +20.2 65 +34 +34 очень
душно
1012.7 1012.4
18 15.07 ЮЗ 2 6000 м 9/4 420 м
[Sc Ac trans Ci sp]
+26.6 +20.0 67 +33 +33 очень
душно
1012.6 1012.2
21 15.07 Ю 3 6000 м 8/3 420 м
[Sc Ac trans Ci sp]
+24.1 +19.2 74 +29 +29 душно 1012.0 1011.7
00 16.07 ЮЗ 2 6000 м 9/4 420 м
[Sc Ac trans Ci sp]
+26.6 +20.0 67 +33 +33 очень
душно
1012.6 1012.2
03 16.07 ЮВ 5 7000 м 5/1 420 м
[Cu hum Ac trans Ci fib]
+30.6 +15.5 40 +33 +39 душно 1012.7 1012.3
06 16.07 Ю 4 8000 м 5/1 420 м
[Cu hum Ac trans Ci fib]
+32.9 +14.5 33 +34 +42 очень
жарко
1009.9 1009.5

 

Местоположение метеостанции Аэропорт Ахмад Яни (Индонезия): широта -6.98 долгота 110.38 высота над уровнем моря 3 м.

В архиве по умолчанию представлена погода в Аэропорту Ахмад Яни за последнюю неделю. Архивные данные за месяц целиком и за предыдущие месяцы, начиная с января 2011 года, Вы можете получить, выбрав интересующий диапазон дат из раскрывающегося списка и нажав кнопку "Ввод!".


*Определитесь, кто Вы:
робот инопланетянин человек

Внимание! Время в таблицах - всемирное. Для получения местного времени необходимо прибавить поправку, которая равна 7 ч.

Смотрите также архив погоды в соседних городах и на ближайших метеорологических станциях:

Погода в Семаранге (Индонезия) (3 км)
Погода в Тегале (Индонезия) (137 км)
Погода в Чилачапе (Индонезия) (173 км)
Погода в Сиребоне (Индонезия) (236 км)
Погода в Сурабая Перак (Индонезия) (259 км)
Погода в Аэропорту Джуанда (Индонезия) (266 км)
Погода в Сангкапуре (Индонезия) (279 км)
Погода в Бандунге (Индонезия) (309 км)
Погода в Сурабая Геданган (Индонезия) (369 км)
Погода в Цитеко (Индонезия) (382 км)

Пояснения к столбцам:

Ветер - указаны скорость ветра в м/с - средняя за 10 мин, порывы в срок и между сроками (в фигурных скобках) и направление, откуда дует ветер: С - северный, СВ - северо-восточный, В - восточный, ЮВ - юго-восточный, Ю - южный, ЮЗ - юго-западный, З - западный, СЗ - северо-западный.
Видимость - горизонтальная дальность видимости в метрах или километрах. При видимости от 1 до 10 км при отсутствии осадков обычно наблюдается дымка, при ухудшении видимости до 1 км и менее - туман. В сухую погоду видимость может ухудшаться дымом, пылью или мглою.
Явления - указаны атмосферные явления, наблюдавшиеся в срок или в последний час перед сроком; фигурными скобками обозначены явления, наблюдавшиеся между сроками (за 1-3 часа до срока); квадратными скобками обозначены град или гололедные отложения с указанием их диаметра в мм.
Облачность - указаны через наклонную черту общая и нижняя облачность в баллах и высота нижней границы облаков в метрах; квадратными скобками обозначены формы облаков: Ci - перистые, Cs - перисто-слоистые, Cc - перисто-кучевые, Ac - высококучевые, As - высокослоистые, Sc - слоисто-кучевые, Ns - слоисто-дождевые, Cu - кучевые, Cb - кучево-дождевые. Подробнее классификацию облаков см. в Атласе облаков (PDF).
T - Температура воздуха - температура, измеренная на высоте 2 м над землей.
Td - Температура точки росы - температура, при понижении до которой содержащийся в воздухе водяной пар достигнет насыщения.
f - Относительная влажность воздуха - влажноcть воздуха, измеренная на высоте 2 м над землей.
Te - Эффективная температура - температура, которую ощущает одетый по сезону человек в тени. Характеристика душности погоды. При расчете учитывается влияние влажности воздуха и скорости ветра на теплоощущения человека.
Tes - Эффективная температура на солнце - температура, которую ощущает человек, с поправкой на солнечный нагрев. Характеристика знойности погоды. Зависит от высоты солнца над горизонтом, облачности и скорости ветра. Ночью, в пасмурную погоду, а также при ветре 12 м/с и более поправка равна нулю.
P - Атмосферное давление - приведенное к уровню моря атмосферное давление.
Po - Атмосферное давление - измеренное на уровне метеостанции атмосферное давление.
Tmin - Минимальная температура - минимум температуры воздуха на высоте 2 м над землей.
Tmax - Максимальная температура - максимум температуры воздуха на высоте 2 м над землей.
R - Количество осадков - Количество выпавших осадков за период времени, мм. При наведении курсора мыши на число - период времени, за который выпало указанное количество осадков.
R24 - Количество осадков - Количество выпавших осадков за 24 часа, мм.
S - Снежный покров - Высота снежного покрова, см. При наведении курсора мыши на число - состояние снежного покрова и степень покрытия местности в баллах.